Wind_Speed
7 9 11 12 11 11 10 9 10 11 11 8 9 9 9 8 8 6 7 9 9 9 7 8 9 10 11 11 10 10 11 14 15 15 14 16 15 19 18 20 21 21 21
9 11 11 10 11 10 8 9 10 12 8 6 6 7 6 5 3 6 6 8 9 8 8 7 7 8 11 10 9 10 14 16 14 14 13 13 15 18 16 18 18 22 28
9 10 11 10 8 9 10 9 10 8 6 6 7 6 4 3 3 4 7 7 5 8 8 9 8 7 7 8 10 10 13 16 15 14 9 13 22 21 22 17 22 21 23
9 9 8 8 7 10 9 8 8 8 8 8 7 6 3 2 6 6 5 7 6 6 6 11 9 10 8 9 12 12 13 14 15 14 11 14 14 15 20 20 22 18 23
9 8 6 4 2 5 8 7 8 8 8 8 9 8 5 4 6 6 5 4 4 4 7 9 10 11 8 9 9 14 13 14 14 14 17 17 18 16 18 26 23 24 21
10 8 4 3 1 4 7 8 9 8 7 10 10 8 5 4 4 11 7 3 6 6 8 8 9 8 9 10 13 13 12 8 6 5 11 24 21 27 32 22 26 29 36
11 7 4 2 1 3 7 7 9 9 9 10 10 8 5 4 3 4 5 4 5 7 9 10 6 9 14 16 17 16 13 7 8 7 19 23 21 25 28 27 19 32 28
10 5 3 2 1 3 6 8 9 8 8 9 9 8 6 3 3 6 9 4 3 4 7 9 4 1 4 10 20 22 18 19 25 26 22 26 31 26 22 28 29 25 32
10 7 4 4 6 4 6 8 7 7 9 10 9 8 6 5 3 5 8 5 6 6 5 4 8 9 10 20 26 30 28 25 21 33 24 24 22 30 29 30 32 30 28
9 6 7 8 9 7 5 6 7 8 10 9 8 7 7 5 4 4 4 4 4 6 7 10 15 12 17 22 28 26 35 37 35 38 36 32 27 29 31 26 20 22 21
11 11 8 10 9 7 5 5 8 8 7 6 6 6 7 4 5 6 5 6 6 10 11 14 17 14 24 31 33 33 35 37 35 34 32 35 35 32 28 23 21 20 18
13 14 11 10 9 7 6 7 6 4 5 7 7 7 5 2 7 8 6 7 8 13 13 14 15 20 33 35 31 31 31 30 34 32 30 29 28 27 25 26 27 28 25
14 10 9 8 8 6 6 7 5 3 2 7 9 7 6 6 10 9 8 7 8 12 14 15 17 26 34 33 28 22 21 18 24 30 26 24 22 23 26 29 27 23 23
14 10 8 7 5 4 4 6 7 5 7 9 10 8 9 7 7 9 7 5 6 10 16 17 20 24 29 31 29 29 25 17 17 25 23 21 22 24 25 23 19 16 15
13 11 8 7 4 4 3 4 5 5 9 12 11 10 10 8 7 8 8 10 11 11 14 16 19 23 23 27 26 25 24 25 24 22 21 18 19 21 20 19 17 14 14
12 11 8 7 5 5 5 3 5 4 8 12 12 11 8 8 8 10 15 18 15 14 13 13 15 17 20 24 19 20 24 25 27 25 23 20 20 20 20 18 17 16 14
11 11 8 7 5 5 5 4 7 8 10 14 13 12 12 12 13 15 17 17 15 15 16 16 17 17 20 22 20 20 21 24 25 24 22 21 22 21 19 18 16 16 15
12 11 10 7 6 5 5 7 7 8 9 11 11 11 10 12 13 13 13 12 11 11 14 16 16 16 17 18 19 18 19 20 20 20 21 22 23 22 20 18 16 14 13
14 13 11 9 7 6 6 6 8 9 8 10 11 10 9 10 11 12 13 12 10 8 8 9 11 13 14 15 16 17 17 16 17 18 19 20 21 21 20 18 17 17 17
14 13 11 10 9 7 6 7 9 10 10 9 8 9 8 8 7 7 9 11 12 14 14 12 11 11 13 14 14 14 15 16 16 18 18 18 19 20 20 19 20 21 22
18 14 12 9 7 6 5 5 6 9 10 11 11 11 10 10 10 10 10 9 9 10 11 13 15 15 15 15 17 18 18 18 19 20 21 21 21 22 22 23 24 25 26
19 19 17 14 10 7 4 3 4 6 8 11 14 15 15 15 15 15 14 14 13 13 13 14 14 14 15 17 18 20 21 21 21 22 22 23 25 26 26 28 28 29 29
23 22 21 20 17 14 11 7 5 4 5 6 10 14 16 17 18 19 18 18 19 19 19 19 18 18 17 17 17 17 18 18 18 19 21 22 23 24 25 26 27 27 28
29 27 26 24 22 21 19 17 15 12 10 8 9 11 12 15 17 18 20 22 23 24 25 26 25 23 22 21 20 20 20 20 21 22 23 25 26 26 27 28 28 29 30
28 28 29 28 27 26 25 23 21 20 19 17 16 14 13 13 15 15 15 21 23 25 26 27 27 26 24 23 23 22 22 22 23 24 26 28 30 30 31 31 30 31 32
32 29 29 29 28 28 29 30 29 27 27 26 24 22 20 19 17 17 18 18 19 23 26 27 27 26 25 25 24 23 23 23 24 26 29 31 32 33 34 34 33 33 34
Wind_Direction
237 247 246 247 253 255 252 250 261 261 257 248 239 233 241 246 254 274 279 280 258 253 236 206 190 193 199 196 189 189 196 190 193 193 200 203 201 205 202 196 193 194 200
249 248 247 251 249 244 236 240 238 244 242 248 232 233 238 241 264 288 262 265 244 241 231 207 200 190 177 174 182 194 193 186 194 197 197 201 192 194 190 190 195 170 184
253 251 254 247 223 220 220 221 231 221 230 218 202 204 196 250 285 274 246 248 227 222 216 191 194 188 193 196 203 208 186 181 191 188 200 197 198 197 181 193 161 170 192
246 236 207 212 211 206 211 210 206 207 208 198 191 171 151 45 353 324 310 253 202 195 204 203 206 196 195 218 225 204 190 198 199 197 203 185 179 164 199 186 172 182 192
214 182 152 131 161 201 208 214 192 199 208 190 169 154 138 66 40 9 48 63 181 182 189 200 194 193 208 209 195 183 194 193 205 214 210 196 182 168 162 172 184 189 175
154 119 101 102 128 199 198 185 183 198 198 177 163 159 161 121 59 26 49 119 81 169 200 194 223 223 201 187 176 176 182 179 206 231 224 174 164 172 192 178 193 177 144
144 133 106 106 85 163 170 175 191 194 176 180 160 166 147 156 15 76 66 103 136 125 161 180 175 205 215 210 196 179 170 192 189 229 173 166 173 160 182 183 178 149 138
155 140 102 85 166 134 151 165 189 194 177 176 158 163 144 132 58 17 52 135 115 154 107 123 158 344 172 183 195 201 170 146 124 128 159 140 156 153 148 147 142 149 149
152 140 115 106 99 133 132 146 171 163 163 163 168 170 169 163 132 77 62 107 144 145 146 121 92 89 136 136 140 139 132 135 154 140 131 124 137 143 137 141 140 144 148
152 138 139 125 103 103 128 155 168 147 160 169 181 183 188 158 153 119 88 113 146 155 154 117 113 103 131 129 138 135 135 128 135 133 133 138 136 142 139 138 134 139 142
150 150 146 109 96 89 109 162 178 165 159 182 193 183 181 148 157 140 116 109 118 152 152 121 124 108 134 134 132 130 136 134 134 136 136 141 137 140 143 143 143 138 139
149 157 134 105 101 99 108 134 161 169 189 204 205 192 195 200 167 150 132 119 110 127 137 127 131 130 140 140 133 132 137 143 144 144 144 147 149 150 150 150 151 155 159
137 142 130 118 108 112 123 122 116 98 151 193 186 185 190 162 154 158 153 142 134 135 148 137 143 147 146 142 145 136 145 142 155 154 151 148 154 158 157 159 164 163 165
140 142 148 130 120 114 125 126 120 120 104 132 148 151 148 150 157 166 176 186 173 149 161 148 146 154 151 155 157 159 157 158 141 157 153 156 157 159 163 165 164 165 171
151 146 147 141 141 119 127 144 141 140 143 136 133 142 146 150 161 173 171 155 152 150 158 161 159 169 164 160 156 162 169 165 168 165 169 161 161 166 168 169 176 179 179
166 154 150 146 141 126 113 134 141 112 138 136 138 134 128 138 133 136 145 139 136 132 135 155 159 163 175 174 167 164 166 168 171 173 176 172 171 173 174 181 185 186 188
167 161 159 150 143 126 114 110 129 142 133 125 131 132 128 126 127 130 137 141 144 137 133 137 148 157 168 174 174 170 170 171 175 181 182 179 178 181 186 189 190 191 195
175 169 163 167 167 158 146 143 140 135 137 131 131 138 141 141 141 145 149 152 148 144 143 147 153 157 162 168 172 175 178 183 188 189 188 189 190 194 198 200 204 206 213
182 182 173 173 175 178 180 175 172 168 163 151 148 153 156 159 159 157 156 156 161 159 160 166 167 169 174 176 179 184 190 192 198 203 203 203 206 209 213 217 222 227 234
183 192 198 187 187 197 201 197 195 199 195 191 176 174 167 162 156 159 170 173 173 176 178 182 189 196 195 193 199 205 204 204 205 208 211 215 222 229 230 232 236 240 247
176 174 183 197 197 196 209 216 221 225 215 210 210 215 205 194 192 186 190 191 191 193 194 194 193 195 198 204 209 213 217 218 218 218 220 224 230 236 240 240 242 246 250
185 181 180 176 184 181 165 184 213 229 240 230 221 224 230 228 222 218 216 213 210 209 210 211 213 215 217 216 216 217 219 222 224 224 225 228 233 238 241 246 248 248 251
200 199 198 196 195 189 195 207 224 243 249 254 253 247 239 237 238 237 235 234 234 233 232 231 230 228 228 230 234 238 239 236 237 242 242 240 238 238 241 246 252 256 258
220 215 214 216 215 211 210 212 217 220 226 237 249 255 260 261 255 249 248 243 241 240 241 242 243 242 242 242 242 244 247 246 245 246 249 250 249 249 252 255 258 261 264
245 245 231 226 231 234 234 232 231 234 235 234 233 238 245 253 264 268 260 254 254 252 249 247 246 246 245 244 245 245 244 247 248 246 248 250 252 255 258 259 259 261 263
245 246 252 250 248 245 244 244 246 248 250 251 249 246 244 244 247 253 261 264 261 258 257 255 250 245 242 242 245 246 248 250 251 253 254 255 256 258 258 259 261 264 266
Height
3030 3031 3032 3033 3034 3035 3036 3037 3037 3037 3038 3039 3039 3040 3040 3040 3041 3040 3039 3040 3041 3042 3042 3042 3043 3045 3046 3048 3050 3053 3056 3058 3061 3063 3066 3069 3071 3076 3079 3082 3088 3092 3096
3028 3028 3030 3030 3031 3032 3033 3034 3035 3036 3036 3037 3038 3039 3039 3039 3039 3039 3038 3038 3039 3040 3040 3041 3042 3044 3046 3048 3050 3052 3054 3057 3060 3063 3065 3068 3071 3075 3078 3082 3087 3089 3093
3026 3026 3027 3028 3029 3030 3032 3033 3034 3035 3036 3037 3038 3039 3039 3039 3038 3037 3037 3036 3037 3039 3039 3040 3042 3044 3046 3048 3050 3051 3053 3056 3059 3063 3064 3065 3070 3074 3077 3082 3082 3092 3099
3025 3025 3026 3027 3028 3029 3031 3032 3032 3034 3036 3037 3037 3038 3039 3039 3038 3035 3035 3034 3036 3037 3038 3040 3042 3044 3046 3047 3048 3051 3053 3056 3059 3062 3064 3066 3068 3071 3073 3082 3087 3093 3098
3024 3024 3025 3026 3027 3028 3029 3030 3032 3034 3035 3036 3037 3038 3039 3040 3038 3036 3035 3035 3035 3036 3038 3039 3041 3043 3044 3046 3047 3051 3054 3056 3058 3062 3064 3067 3070 3071 3076 3082 3090 3094 3097
3022 3024 3026 3026 3027 3028 3028 3029 3031 3033 3035 3036 3037 3039 3040 3040 3039 3038 3037 3037 3036 3036 3038 3040 3041 3042 3044 3046 3049 3051 3053 3056 3058 3060 3060 3064 3069 3074 3078 3083 3089 3094 3099
3023 3025 3026 3027 3027 3027 3028 3029 3031 3033 3035 3036 3038 3040 3041 3041 3041 3039 3039 3038 3037 3038 3038 3039 3040 3041 3043 3045 3049 3052 3054 3055 3056 3061 3065 3068 3070 3077 3082 3087 3092 3098 3103
3024 3026 3028 3028 3028 3028 3028 3030 3032 3034 3035 3036 3039 3041 3042 3043 3042 3040 3039 3039 3039 3040 3039 3039 3040 3040 3038 3040 3043 3049 3053 3056 3058 3060 3067 3070 3076 3081 3087 3093 3097 3102 3107
3026 3027 3029 3029 3029 3029 3030 3031 3032 3034 3036 3037 3040 3041 3043 3043 3043 3043 3042 3042 3041 3042 3042 3042 3041 3042 3042 3044 3046 3050 3054 3056 3061 3067 3072 3078 3082 3088 3093 3097 3101 3108 3112
3027 3029 3030 3030 3030 3031 3032 3032 3034 3036 3037 3038 3040 3042 3043 3044 3045 3044 3044 3044 3044 3044 3045 3045 3045 3047 3048 3050 3055 3057 3059 3062 3068 3072 3077 3082 3088 3092 3098 3105 3111 3114 3118
3028 3030 3031 3031 3032 3033 3034 3034 3035 3038 3038 3039 3041 3042 3044 3046 3046 3046 3046 3046 3045 3045 3047 3049 3050 3051 3053 3057 3062 3065 3068 3069 3074 3079 3082 3087 3092 3097 3102 3107 3113 3118 3123
3030 3032 3032 3033 3034 3035 3036 3036 3037 3038 3039 3040 3041 3043 3045 3046 3046 3047 3048 3048 3048 3049 3051 3053 3055 3056 3059 3063 3067 3070 3075 3078 3081 3085 3089 3093 3097 3101 3106 3109 3113 3116 3119
3030 3032 3033 3034 3036 3037 3038 3038 3038 3039 3039 3039 3042 3044 3045 3046 3048 3048 3050 3051 3052 3053 3055 3057 3058 3061 3064 3067 3072 3077 3080 3084 3088 3091 3095 3099 3102 3106 3108 3112 3115 3120 3123
3031 3034 3035 3036 3037 3039 3040 3039 3039 3040 3040 3040 3042 3045 3046 3047 3048 3050 3052 3053 3054 3055 3058 3060 3063 3065 3068 3072 3074 3079 3084 3088 3093 3096 3099 3102 3105 3109 3113 3116 3120 3123 3125
3033 3035 3037 3037 3038 3040 3041 3040 3040 3041 3041 3042 3043 3045 3047 3048 3050 3051 3052 3054 3056 3058 3060 3063 3065 3068 3072 3075 3078 3081 3085 3090 3094 3098 3101 3105 3108 3111 3115 3118 3120 3123 3125
3034 3036 3038 3040 3041 3042 3043 3043 3042 3044 3044 3044 3046 3047 3049 3050 3051 3052 3054 3056 3059 3061 3062 3065 3068 3071 3074 3078 3081 3084 3087 3090 3094 3099 3102 3105 3109 3112 3116 3118 3120 3123 3124
3036 3038 3039 3041 3043 3044 3045 3046 3045 3046 3048 3047 3049 3050 3051 3053 3055 3057 3059 3061 3064 3065 3066 3068 3071 3074 3077 3080 3083 3087 3090 3093 3096 3099 3102 3106 3109 3112 3114 3117 3119 3121 3124
3037 3039 3040 3042 3044 3045 3046 3048 3049 3049 3051 3051 3052 3054 3055 3057 3058 3061 3063 3066 3068 3070 3071 3073 3075 3077 3080 3083 3086 3089 3092 3094 3097 3100 3103 3105 3108 3110 3113 3115 3118 3119 3121
3035 3038 3040 3042 3044 3046 3047 3049 3050 3052 3053 3053 3054 3056 3058 3059 3060 3062 3064 3066 3069 3072 3074 3076 3078 3080 3083 3086 3088 3090 3092 3095 3097 3100 3102 3104 3107 3109 3111 3112 3114 3116 3116
3034 3038 3040 3042 3043 3045 3047 3049 3051 3053 3054 3056 3057 3057 3059 3061 3063 3064 3066 3067 3069 3071 3073 3076 3078 3080 3083 3085 3087 3090 3092 3093 3095 3097 3099 3101 3103 3105 3107 3109 3110 3111 3112
3030 3034 3038 3041 3043 3045 3047 3049 3051 3053 3054 3056 3058 3059 3060 3061 3063 3064 3066 3068 3070 3072 3074 3075 3076 3078 3080 3082 3084 3086 3089 3091 3093 3095 3096 3098 3099 3100 3102 3103 3103 3104 3105
3029 3031 3034 3038 3041 3044 3046 3048 3050 3052 3053 3055 3056 3057 3059 3060 3062 3064 3066 3067 3069 3071 3072 3074 3076 3077 3078 3080 3081 3082 3084 3085 3087 3090 3092 3093 3094 3095 3096 3097 3097 3097 3098
3027 3029 3031 3034 3037 3039 3042 3045 3047 3049 3051 3053 3054 3055 3056 3057 3059 3061 3063 3065 3066 3068 3069 3070 3072 3074 3075 3077 3078 3080 3081 3083 3085 3086 3087 3088 3089 3089 3090 3090 3091 3090 3090
3022 3024 3027 3031 3033 3035 3037 3039 3042 3044 3046 3048 3050 3052 3053 3054 3055 3057 3058 3060 3061 3063 3064 3066 3067 3069 3071 3072 3073 3075 3076 3077 3078 3080 3081 3082 3082 3082 3082 3082 3082 3081 3081
3020 3021 3023 3025 3029 3031 3034 3035 3037 3039 3041 3042 3043 3045 3048 3049 3050 3051 3053 3054 3055 3056 3058 3060 3061 3063 3064 3066 3067 3067 3068 3069 3071 3072 3072 3072 3073 3074 3074 3074 3074 3074 3073
3013 3015 3017 3020 3022 3025 3027 3029 3031 3033 3035 3037 3038 3039 3041 3043 3044 3045 3047 3048 3048 3050 3051 3052 3054 3055 3057 3059 3060 3061 3062 3063 3063 3064 3064 3064 3064 3064 3064 3064 3064 3064 3063